Weather History for KETB - January, 2013

Change the Weather History Date:

Wednesday, January 30, 2013

  Actual Average Record
Temperature  
Mean Temperature 26 °F -  
Max Temperature 35 °F 26 °F 48 °F (1988)
Min Temperature 17 °F 11 °F -29 °F (1951)
Degree Days  
Heating Degree Days 39    
Moisture  
Dew Point 26 °F    
Average Humidity 89    
Maximum Humidity 100    
Minimum Humidity 73    
Precipitation  
Precipitation 0.07 in - - ()
Sea Level Pressure  
Sea Level Pressure 29.37 in    
Wind  
Wind Speed 12 mph (NNW)    
Max Wind Speed 23 mph    
Max Gust Speed 30 mph    
Visibility 5 miles    
Events Rain , Snow    
Averages and records for this station are not official NWS values.
T = Trace of Precipitation, MM = Missing Value Source: NWS Daily Summary

Daily Weather History Graph

Daily Weather History Graph

Search for Another Location

Airport or City:

Trip Planner

Search our weather history database for the weather conditions in past years. The results will help you decide how hot, cold, wet, or windy it might be!

Date:

Astronomy

Jan. 30, 2013 Rise Set
Actual Time 7:10 AM CST 5:01 PM CST
Civil Twilight 6:39 AM CST 5:32 PM CST
Nautical Twilight 6:05 AM CST 6:06 PM CST
Astronomical Twilight 5:32 AM CST 6:40 PM CST
Moon 9:09 PM CST (1/30) 8:30 AM CST (1/30)
Length of Visible Light 10h 52m
Length of Day
9h 51m
Waning Gibbous, 87% of the Moon is Illuminated
Jan 30
Waning Gibbous
Feb 3
Last Quarter
Feb 10
New
Feb 17
First Quarter
Feb 25
Full

Hourly Weather History & Observations

Time (CST) Temp. Windchill Dew Point Humidity Pressure Visibility Wind Dir Wind Speed Gust Speed Precip Events Conditions
12:15 AM 35.6 °F 27.5 °F 35.6 °F 100% 29.43 in 10.0 mi North 11.5 mph - N/A Rain Light Rain
12:35 AM 35.6 °F 28.0 °F 33.8 °F 93% 29.41 in 10.0 mi North 10.4 mph - N/A   Drizzle
12:55 AM 35.6 °F 28.6 °F 33.8 °F 93% 29.43 in 10.0 mi North 9.2 mph 17.3 mph N/A Rain Rain
1:15 AM 35.6 °F 27.5 °F 33.8 °F 93% 29.44 in 7.0 mi North 11.5 mph - N/A Rain Light Rain
1:35 AM 33.8 °F 25.8 °F 33.8 °F 100% 29.44 in 3.0 mi North 10.4 mph - 0.02 in Rain Light Rain
1:55 AM 33.8 °F 26.4 °F 32.0 °F 93% 29.43 in 5.0 mi NNE 9.2 mph - 0.03 in Rain Rain
2:15 AM 33.8 °F 26.4 °F 32.0 °F 93% 29.40 in 10.0 mi NNE 9.2 mph 16.1 mph N/A Rain Light Rain
2:35 AM 33.8 °F 25.8 °F 32.0 °F 93% 29.42 in 10.0 mi North 10.4 mph - N/A   Drizzle
2:55 AM 33.8 °F 26.4 °F 32.0 °F 93% 29.41 in 10.0 mi NNE 9.2 mph 17.3 mph N/A   Drizzle
3:15 AM 33.8 °F 27.0 °F 32.0 °F 93% 29.42 in 10.0 mi North 8.1 mph - N/A   Light Drizzle
3:35 AM 33.8 °F 26.4 °F 32.0 °F 93% 29.43 in 4.0 mi North 9.2 mph - N/A Rain Heavy Rain
3:55 AM 32.0 °F 24.2 °F 32.0 °F 100% 29.41 in 3.0 mi North 9.2 mph 17.3 mph 0.01 in Rain Light Rain
4:15 AM 32.0 °F 25.6 °F 32.0 °F 100% 29.43 in 5.0 mi North 6.9 mph - N/A Rain Light Rain
4:35 AM 32.0 °F 24.2 °F 32.0 °F 100% 29.41 in 7.0 mi NNE 9.2 mph - N/A Rain Light Rain
4:55 AM 32.0 °F 25.6 °F 32.0 °F 100% 29.41 in 7.0 mi NNE 6.9 mph - N/A Rain Light Rain
5:15 AM 32.0 °F 22.1 °F 32.0 °F 100% 29.36 in 5.0 mi NNE 13.8 mph 19.6 mph N/A Rain Light Rain
5:35 AM 32.0 °F 23.6 °F 32.0 °F 100% 29.36 in 7.0 mi NNE 10.4 mph 18.4 mph N/A Rain Rain
5:55 AM 32.0 °F 25.6 °F 32.0 °F 100% 29.39 in 10.0 mi North 6.9 mph - N/A   Overcast
6:15 AM 32.0 °F 24.2 °F 32.0 °F 100% 29.38 in 10.0 mi North 9.2 mph - N/A   Overcast
6:35 AM 32.0 °F 24.8 °F 32.0 °F 100% 29.36 in 10.0 mi North 8.1 mph - N/A   Overcast
6:55 AM 32.0 °F 24.2 °F 32.0 °F 100% 29.36 in 5.0 mi NNE 9.2 mph 18.4 mph N/A Snow Light Snow
7:15 AM 32.0 °F 22.5 °F 32.0 °F 100% 29.34 in 3.0 mi NNE 12.7 mph 18.4 mph N/A Snow Light Snow
7:55 AM 32.0 °F 22.5 °F 32.0 °F 100% 29.33 in 4.0 mi NNE 12.7 mph 19.6 mph N/A Snow Light Snow
8:15 AM 32.0 °F 24.2 °F 30.2 °F 93% 29.34 in 4.0 mi NE 9.2 mph 19.6 mph N/A Snow Light Snow
8:35 AM 32.0 °F 23.6 °F 30.2 °F 93% 29.36 in 5.0 mi NNE 10.4 mph 18.4 mph N/A Snow Light Snow
8:55 AM 32.0 °F 21.2 °F 30.2 °F 93% 29.33 in 1.2 mi NNE 16.1 mph 24.2 mph 0.01 in Snow Light Snow
9:15 AM 32.0 °F 22.5 °F 30.2 °F 93% 29.32 in 0.8 mi NNE 12.7 mph - N/A Snow Light Snow
9:35 AM 30.2 °F 19.8 °F 28.4 °F 93% 29.32 in 0.8 mi North 13.8 mph 18.4 mph N/A Snow Light Snow
9:55 AM 30.2 °F 18.9 °F 28.4 °F 93% 29.29 in 0.8 mi NNE 16.1 mph 21.9 mph 0.01 in Snow Light Snow
10:15 AM 30.2 °F 22.6 °F 28.4 °F 93% 29.31 in 0.5 mi North 8.1 mph 16.1 mph N/A Snow Snow
10:35 AM 30.2 °F 18.1 °F 28.4 °F 93% 29.27 in 0.8 mi NE 18.4 mph 25.3 mph N/A Snow Light Snow
10:55 AM 30.2 °F 18.5 °F 28.4 °F 93% 29.28 in 0.8 mi North 17.3 mph 20.7 mph 0.01 in Snow Light Snow
11:15 AM 30.2 °F 22.6 °F 26.6 °F 86% 29.30 in 1.0 mi North 8.1 mph 24.2 mph N/A Snow Light Snow
11:35 AM 30.2 °F 21.3 °F 26.6 °F 86% 29.29 in 0.5 mi North 10.4 mph - N/A Snow Light Snow
12:15 PM 28.4 °F 17.5 °F 26.6 °F 93% 29.29 in 0.5 mi NNW 13.8 mph 18.4 mph N/A Snow Light Snow
12:55 PM 30.2 °F 18.9 °F 26.6 °F 86% 29.26 in 0.8 mi NNW 16.1 mph 20.7 mph N/A Snow Light Snow
1:15 PM 28.4 °F 16.6 °F 24.8 °F 86% 29.26 in 3.0 mi NNW 16.1 mph 24.2 mph N/A Snow Light Snow
1:35 PM 28.4 °F 16.6 °F 23.0 °F 80% 29.27 in 7.0 mi NNW 16.1 mph 23.0 mph N/A   Overcast
1:55 PM 28.4 °F 16.2 °F 23.0 °F 80% 29.26 in 10.0 mi NNW 17.3 mph 23.0 mph N/A   Overcast
2:15 PM 28.4 °F 16.2 °F 23.0 °F 80% 29.27 in 10.0 mi NNW 17.3 mph 21.9 mph N/A   Overcast
2:35 PM 28.4 °F 17.0 °F 23.0 °F 80% 29.27 in 10.0 mi NW 15.0 mph - N/A   Overcast
2:55 PM 28.4 °F 17.0 °F 23.0 °F 80% 29.28 in 10.0 mi NW 15.0 mph 19.6 mph N/A Snow Light Snow
3:15 PM 28.4 °F 17.0 °F 23.0 °F 80% 29.29 in 5.0 mi NW 15.0 mph 29.9 mph N/A Snow Light Snow
3:35 PM 28.4 °F 17.5 °F 23.0 °F 80% 29.29 in 3.0 mi NW 13.8 mph 20.7 mph N/A Snow Light Snow
3:55 PM 28.4 °F 16.2 °F 23.0 °F 80% 29.30 in 2.0 mi NW 17.3 mph 23.0 mph N/A Snow Light Snow
4:15 PM 28.4 °F 15.4 °F 23.0 °F 80% 29.30 in 3.0 mi NW 19.6 mph 24.2 mph N/A Snow Light Snow
4:35 PM 26.6 °F 15.2 °F 23.0 °F 86% 29.31 in 5.0 mi NW 13.8 mph 23.0 mph N/A Snow Light Snow
4:55 PM 26.6 °F 15.2 °F 21.2 °F 80% 29.33 in 4.0 mi NW 13.8 mph 25.3 mph N/A Snow Light Snow
5:15 PM 26.6 °F 15.7 °F 21.2 °F 80% 29.34 in 5.0 mi NW 12.7 mph - N/A Snow Light Snow
5:35 PM 26.6 °F 14.7 °F 23.0 °F 86% 29.36 in 7.0 mi WNW 15.0 mph 18.4 mph N/A Snow Light Snow
5:55 PM 26.6 °F 13.8 °F 21.2 °F 80% 29.37 in 7.0 mi NW 17.3 mph 23.0 mph N/A Snow Light Snow
6:15 PM 26.6 °F 14.3 °F 21.2 °F 80% 29.37 in 7.0 mi NW 16.1 mph 23.0 mph N/A Snow Light Snow
6:55 PM 26.6 °F 15.7 °F 21.2 °F 80% 29.39 in 4.0 mi WNW 12.7 mph 25.3 mph N/A Snow Light Snow
7:15 PM 23.0 °F 7.2 °F 19.4 °F 86% 29.39 in 2.0 mi NW 23.0 mph 27.6 mph N/A Snow Light Snow
7:35 PM 23.0 °F 8.0 °F 17.6 °F 80% 29.40 in 5.0 mi NW 20.7 mph 29.9 mph N/A Snow Light Snow
7:55 PM 23.0 °F 7.6 °F 17.6 °F 80% 29.41 in 7.0 mi NW 21.9 mph 27.6 mph N/A Snow Light Snow
8:15 PM 21.2 °F 7.3 °F 17.6 °F 86% 29.42 in 3.0 mi NW 16.1 mph 19.6 mph N/A Snow Light Snow
8:35 PM 21.2 °F 9.5 °F 17.6 °F 86% 29.43 in 5.0 mi NW 11.5 mph 19.6 mph N/A Snow Light Snow
8:55 PM 21.2 °F 6.4 °F 17.6 °F 86% 29.44 in 1.0 mi NW 18.4 mph 24.2 mph N/A Snow Light Snow
9:15 PM 21.2 °F 7.8 °F 17.6 °F 86% 29.45 in 1.2 mi WNW 15.0 mph 20.7 mph N/A Snow Light Snow
9:35 PM 19.4 °F 6.0 °F 15.8 °F 86% 29.46 in 2.0 mi West 13.8 mph 24.2 mph N/A Snow Light Snow
9:55 PM 19.4 °F 3.2 °F 14.0 °F 80% 29.47 in 4.0 mi WNW 20.7 mph 26.5 mph N/A Snow Light Snow
10:15 PM 19.4 °F 4.5 °F 14.0 °F 80% 29.48 in 5.0 mi WNW 17.3 mph 23.0 mph N/A Snow Light Snow
10:35 PM 17.6 °F 2.7 °F 12.2 °F 79% 29.49 in 5.0 mi WNW 16.1 mph 24.2 mph N/A Snow Light Snow
10:55 PM 17.6 °F 2.2 °F 12.2 °F 79% 29.50 in 7.0 mi WNW 17.3 mph 24.2 mph N/A   Overcast
11:15 PM 17.6 °F 3.2 °F 12.2 °F 79% 29.51 in 5.0 mi West 15.0 mph 19.6 mph N/A Snow Light Snow
11:35 PM 17.6 °F 2.2 °F 10.4 °F 73% 29.53 in 10.0 mi West 17.3 mph 23.0 mph N/A Snow Light Snow